Time,TemperatureF,DewpointF,PressureIn,WindDirection,WindDirectionDegrees,WindSpeedMPH,WindSpeedGustMPH,Humidity,HourlyPrecipIn,Conditions,Clouds,dailyrainin,SoftwareType,DateUTC
2013-05-01 00:00:00,46.0,37.0,30.17,North,-999,-999.0,-999.0,71,-99.99,,,-99.99,,2013-04-30 23:00:00,
2013-05-01 00:42:00,46.0,37.0,30.17,North,-999,-999.0,-999.0,71,-99.99,,,-99.99,,2013-04-30 23:42:00,
2013-05-01 00:52:00,46.0,37.0,30.17,North,-999,-999.0,-999.0,71,-99.99,,,-99.99,,2013-04-30 23:52:00,
2013-05-01 01:00:00,46.0,37.0,30.16,North,-999,-999.0,-999.0,71,-99.99,,,-99.99,,2013-05-01 00:00:00,
2013-05-01 01:42:00,46.0,37.0,30.16,North,-999,-999.0,-999.0,71,-99.99,,,-99.99,,2013-05-01 00:42:00,
2013-05-01 01:51:00,46.0,37.0,30.16,North,-999,-999.0,-999.0,71,-99.99,,,-99.99,,2013-05-01 00:51:00,
2013-05-01 04:00:00,47.0,40.0,30.11,North,-999,-999.0,-999.0,79,-99.99,,,-99.99,,2013-05-01 03:00:00,
2013-05-01 04:42:00,47.0,40.0,30.11,North,-999,-999.0,-999.0,79,-99.99,,,-99.99,,2013-05-01 03:42:00,
2013-05-01 04:52:00,47.0,40.0,30.11,North,-999,-999.0,-999.0,79,-99.99,,,-99.99,,2013-05-01 03:52:00,
2013-05-01 05:00:00,46.0,42.0,30.09,North,-999,-999.0,-999.0,86,-99.99,,,-99.99,,2013-05-01 04:00:00,
2013-05-01 05:42:00,46.0,42.0,30.09,North,-999,-999.0,-999.0,86,-99.99,,,-99.99,,2013-05-01 04:42:00,
2013-05-01 05:52:00,46.0,42.0,30.09,North,-999,-999.0,-999.0,86,-99.99,,,-99.99,,2013-05-01 04:52:00,
2013-05-01 06:00:00,45.0,43.0,30.02,North,-999,-999.0,-999.0,90,-99.99,,,-99.99,,2013-05-01 05:00:00,
2013-05-01 06:41:00,45.0,43.0,30.02,North,-999,-999.0,-999.0,90,-99.99,,,-99.99,,2013-05-01 05:41:00,
2013-05-01 06:52:00,45.0,43.0,30.02,North,-999,-999.0,-999.0,90,-99.99,,,-99.99,,2013-05-01 05:52:00,
2013-05-01 07:00:00,46.0,42.0,30.06,North,-999,-999.0,-999.0,83,-99.99,,,-99.99,,2013-05-01 06:00:00,
2013-05-01 07:41:00,46.0,42.0,30.06,North,-999,-999.0,-999.0,83,-99.99,,,-99.99,,2013-05-01 06:41:00,
2013-05-01 07:51:00,46.0,42.0,30.06,North,-999,-999.0,-999.0,83,-99.99,,,-99.99,,2013-05-01 06:51:00,
2013-05-01 10:00:00,45.0,39.0,30.11,North,-999,-999.0,-999.0,77,-99.99,,,-99.99,,2013-05-01 09:00:00,
2013-05-01 10:42:00,45.0,39.0,30.11,North,-999,-999.0,-999.0,77,-99.99,,,-99.99,,2013-05-01 09:42:00,
2013-05-01 10:52:00,45.0,39.0,30.11,North,-999,-999.0,-999.0,77,-99.99,,,-99.99,,2013-05-01 09:52:00,
2013-05-01 11:00:00,45.0,36.0,30.16,North,-999,-999.0,-999.0,72,-99.99,,,-99.99,,2013-05-01 10:00:00,
2013-05-01 11:42:00,45.0,36.0,30.16,North,-999,-999.0,-999.0,72,-99.99,,,-99.99,,2013-05-01 10:42:00,
2013-05-01 11:52:00,45.0,36.0,30.16,North,-999,-999.0,-999.0,72,-99.99,,,-99.99,,2013-05-01 10:52:00,
2013-05-01 12:00:00,47.0,34.0,30.17,North,-999,-999.0,-999.0,60,-99.99,,,-99.99,,2013-05-01 11:00:00,
2013-05-01 12:42:00,47.0,34.0,30.17,North,-999,-999.0,-999.0,60,-99.99,,,-99.99,,2013-05-01 11:42:00,
2013-05-01 12:51:00,47.0,34.0,30.17,North,-999,-999.0,-999.0,60,-99.99,,,-99.99,,2013-05-01 11:51:00,
2013-05-01 13:00:00,48.0,34.0,30.18,North,-999,-999.0,-999.0,58,-99.99,,,-99.99,,2013-05-01 12:00:00,
2013-05-01 13:41:00,48.0,34.0,30.18,North,-999,-999.0,-999.0,58,-99.99,,,-99.99,,2013-05-01 12:41:00,
2013-05-01 13:51:00,48.0,34.0,30.18,North,-999,-999.0,-999.0,58,-99.99,,,-99.99,,2013-05-01 12:51:00,
2013-05-01 14:00:00,47.0,34.0,30.19,North,-999,-999.0,-999.0,60,-99.99,,,-99.99,,2013-05-01 13:00:00,
2013-05-01 14:42:00,47.0,34.0,30.19,North,-999,-999.0,-999.0,60,-99.99,,,-99.99,,2013-05-01 13:42:00,
2013-05-01 14:52:00,47.0,34.0,30.19,North,-999,-999.0,-999.0,60,-99.99,,,-99.99,,2013-05-01 13:52:00,
2013-05-01 15:00:00,46.0,-99.9,30.21,North,-999,-999.0,-999.0,-999,-99.99,,,-99.99,,2013-05-01 14:00:00,
2013-05-01 15:42:00,46.0,-99.9,30.21,North,-999,-999.0,-999.0,-999,-99.99,,,-99.99,,2013-05-01 14:42:00,
2013-05-01 15:52:00,46.0,-99.9,30.21,North,-999,-999.0,-999.0,-999,-99.99,,,-99.99,,2013-05-01 14:52:00,
2013-05-01 16:00:00,45.0,-99.9,30.23,North,-999,-999.0,-999.0,-999,-99.99,,,-99.99,,2013-05-01 15:00:00,
2013-05-01 16:43:00,45.0,-99.9,30.23,North,-999,-999.0,-999.0,-999,-99.99,,,-99.99,,2013-05-01 15:43:00,
2013-05-01 16:53:00,45.0,-99.9,30.23,North,-999,-999.0,-999.0,-999,-99.99,,,-99.99,,2013-05-01 15:53:00,
2013-05-01 17:00:00,45.0,29.0,30.25,North,-999,-999.0,-999.0,53,-99.99,,,-99.99,,2013-05-01 16:00:00,
2013-05-01 17:42:00,45.0,29.0,30.25,North,-999,-999.0,-999.0,53,-99.99,,,-99.99,,2013-05-01 16:42:00,
2013-05-01 17:52:00,45.0,29.0,30.25,North,-999,-999.0,-999.0,53,-99.99,,,-99.99,,2013-05-01 16:52:00,
2013-05-01 18:00:00,45.0,29.0,30.26,North,-999,-999.0,-999.0,53,-99.99,,,-99.99,,2013-05-01 17:00:00,
2013-05-01 18:41:00,45.0,29.0,30.26,North,-999,-999.0,-999.0,53,-99.99,,,-99.99,,2013-05-01 17:41:00,
2013-05-01 18:52:00,45.0,29.0,30.26,North,-999,-999.0,-999.0,53,-99.99,,,-99.99,,2013-05-01 17:52:00,
2013-05-01 19:00:00,45.0,28.0,30.26,North,-999,-999.0,-999.0,50,-99.99,,,-99.99,,2013-05-01 18:00:00,
2013-05-01 19:41:00,45.0,28.0,30.26,North,-999,-999.0,-999.0,50,-99.99,,,-99.99,,2013-05-01 18:41:00,
2013-05-01 19:52:00,45.0,28.0,30.26,North,-999,-999.0,-999.0,50,-99.99,,,-99.99,,2013-05-01 18:52:00,
2013-05-01 20:00:00,44.0,28.0,30.27,North,-999,-999.0,-999.0,53,-99.99,,,-99.99,,2013-05-01 19:00:00,
2013-05-01 20:42:00,44.0,28.0,30.27,North,-999,-999.0,-999.0,53,-99.99,,,-99.99,,2013-05-01 19:42:00,
2013-05-01 20:52:00,44.0,28.0,30.27,North,-999,-999.0,-999.0,53,-99.99,,,-99.99,,2013-05-01 19:52:00,
2013-05-01 21:00:00,44.0,28.0,30.27,North,-999,-999.0,-999.0,51,-99.99,,,-99.99,,2013-05-01 20:00:00,
2013-05-01 21:42:00,44.0,28.0,30.27,North,-999,-999.0,-999.0,51,-99.99,,,-99.99,,2013-05-01 20:42:00,
2013-05-01 21:52:00,44.0,28.0,30.27,North,-999,-999.0,-999.0,51,-99.99,,,-99.99,,2013-05-01 20:52:00,
2013-05-01 22:00:00,44.0,-99.9,30.28,North,-999,-999.0,-999.0,-999,-99.99,,,-99.99,,2013-05-01 21:00:00,
2013-05-01 22:43:00,44.0,-99.9,30.28,North,-999,-999.0,-999.0,-999,-99.99,,,-99.99,,2013-05-01 21:43:00,
2013-05-01 22:53:00,44.0,-99.9,30.28,North,-999,-999.0,-999.0,-999,-99.99,,,-99.99,,2013-05-01 21:53:00,
2013-05-01 23:00:00,42.0,30.0,30.29,North,-999,-999.0,-999.0,61,-99.99,,,-99.99,,2013-05-01 22:00:00,
2013-05-01 23:42:00,42.0,30.0,30.29,North,-999,-999.0,-999.0,61,-99.99,,,-99.99,,2013-05-01 22:42:00,
2013-05-01 23:52:00,42.0,30.0,30.29,North,-999,-999.0,-999.0,61,-99.99,,,-99.99,,2013-05-01 22:52:00,